This demonstration page uses our WeatherBlox Daily Observations layout. Learn more.

Left ArrowRight Arrow

Hourly Observations for November 26, 2016

Temp ( °F °C ) Dew Point ( °F °C ) Humidity (%) Winds ( mph kmh ) Pressure ( in mb ) Visibility ( mi km ) Precip ( " mm )
12:59 am 00:59 Cloudy with Mist and Fog 54 12.2 52 11.1 93 93 NNE 10 17 30.08 1019 5 8 0.00 0.00
1:50 am 01:50 Cloudy with Mist and Fog 54 12.2 52 11.1 93 93 NNE 8 13 30.09 1019 5 8 0.00 0.00
1:59 am 01:59 Cloudy with Mist and Fog 54 12.2 52 11.1 93 93 NNE 8 13 30.08 1019 5 8 0.00 0.00
2:51 am 02:51 Cloudy with Light Rain 53 11.7 50 10 89 89 N 14 22 30.09 1019 4 6 0.00 0.03
2:59 am 02:59 Cloudy with Light Rain 53 11.7 50 10 89 89 N 12 19 30.09 1019 4 6 0.00 0.03
3:50 am 03:50 Cloudy with Light Rain 53 11.7 50 10 89 89 N 13 20 30.09 1019 3 5 0.01 0.25
3:59 am 03:59 Cloudy with Light Rain 52 11.1 50 10 93 93 N 15 24 30.10 1019 3 5 0.01 0.25
4:12 am 04:12 Cloudy with Light Rain 52 11.1 49 9.4 89 89 N 12 19 30.09 1019 3 5 0.01 0.25
4:50 am 04:50 Cloudy with Mist and Fog 52 11.1 49 9.4 89 89 N 16 26 30.09 1019 4 6 0.02 0.51
4:59 am 04:59 Cloudy with Mist and Fog 52 11.1 49 9.4 89 89 N 15 24 30.11 1020 4 6 0.02 0.51
5:59 am 05:59 Cloudy 51 10.6 45 7.2 80 80 N 17 28 30.12 1020 7 11 0.00 0.00
6:59 am 06:59 Cloudy with Mist and Fog 51 10.6 45 7.2 80 80 N 18 30 30.12 1020 4 6 0.00 0.00
7:59 am 07:59 Cloudy with Mist and Fog 51 10.6 43 6.1 74 74 N 17 28 30.14 1021 6 10 0.00 0.00
8:35 am 08:35 Cloudy 51 10.6 41 5 69 69 N 16 26 30.15 1021 9 14 0.00 0.00
8:59 am 08:59 Cloudy 51 10.6 39 3.9 64 64 N 17 28 30.16 1021 9 14 0.00 0.00
9:59 am 09:59 Mostly Cloudy 52 11.1 38 3.3 59 59 N 18 30 30.18 1022 10 16 0.00 0.00
10:59 am 10:59 Mostly Cloudy 53 11.7 37 2.8 55 55 N 16 26 30.18 1022 10 16 0.00 0.00
11:59 am 11:59 Partly Cloudy 54 12.2 36 2.2 51 51 NNW 21 33 30.16 1022 10 16 0.00 0.00
12:59 pm 12:59 Mostly Cloudy 53 11.7 35 1.7 51 51 NNW 23 37 30.15 1021 10 16 0.00 0.00
1:59 pm 13:59 Partly Cloudy 52 11.1 34 1.1 50 50 NNW 16 26 30.14 1021 10 16 0.00 0.00
2:59 pm 14:59 Partly Cloudy 54 12.2 32 0 43 43 NNW 15 24 30.14 1021 10 16 0.00 0.00
3:59 pm 15:59 Mostly Sunny 52 11.1 31 -0.6 45 45 NNW 15 24 30.15 1021 10 16 0.00 0.00
4:59 pm 16:59 Mostly Clear 50 10 33 0.6 52 52 N 13 20 30.16 1022 10 16 0.00 0.00
5:59 pm 17:59 Mostly Cloudy 50 10 32 0 50 50 N 16 26 30.19 1022 10 16 0.00 0.00
6:59 pm 18:59 Mostly Clear 48 8.9 30 -1.1 50 50 NNW 17 28 30.21 1023 10 16 0.00 0.00
7:59 pm 19:59 Clear 47 8.3 29 -1.7 50 50 NNW 21 33 30.22 1023 10 16 0.00 0.00
8:59 pm 20:59 Clear 46 7.8 29 -1.7 51 51 NNW 16 26 30.22 1024 10 16 0.00 0.00
9:59 pm 21:59 Clear 46 7.8 29 -1.7 51 51 NNW 16 26 30.22 1024 10 16 0.00 0.00
10:59 pm 22:59 Clear 45 7.2 30 -1.1 56 56 NNW 15 24 30.22 1023 10 16 0.00 0.00
11:59 pm 23:59 Clear 44 6.7 31 -0.6 60 60 NNW 14 22 30.21 1023 10 16 0.00 0.00

Powered by AerisWeather